Weather History for KIWD - March, 2013

Change the Weather History Date:

Monday, March 4, 2013

  Actual Average Record
Temperature  
Mean Temperature 20 °F -  
Max Temperature 33 °F 26 °F 42 °F (2009)
Min Temperature 6 °F 9 °F -13 °F (2014)
Degree Days  
Heating Degree Days 46    
Moisture  
Dew Point 11 °F    
Average Humidity 56    
Maximum Humidity 92    
Minimum Humidity 37    
Precipitation  
Precipitation 0.00 in - - ()
Sea Level Pressure  
Sea Level Pressure 30.04 in    
Wind  
Wind Speed 8 mph (East)    
Max Wind Speed 17 mph    
Max Gust Speed 21 mph    
Visibility 10 miles    
Events      
Averages and records for this station are not official NWS values.
T = Trace of Precipitation, MM = Missing Value Source: NWS Daily Summary

Daily Weather History Graph

Daily Weather History Graph

Search for Another Location

Airport or City:

Trip Planner

Search our weather history database for the weather conditions in past years. The results will help you decide how hot, cold, wet, or windy it might be!

Date:

Astronomy

Mar. 04, 2013 Rise Set
Actual Time 6:33 AM CST 5:51 PM CST
Civil Twilight 6:03 AM CST 6:21 PM CST
Nautical Twilight 5:28 AM CST 6:56 PM CST
Astronomical Twilight 4:53 AM CST 7:31 PM CST
Moon 12:58 AM CST (3/4) 10:17 AM CST (3/4)
Length of Visible Light 12h 17m
Length of Day
11h 17m
Waning Gibbous, 52% of the Moon is Illuminated
Mar 4
Waning Gibbous
Mar 4
Last Quarter
Mar 11
New
Mar 19
First Quarter
Mar 27
Full

Hourly Weather History & Observations

Time (CST) Temp. Windchill Dew Point Humidity Pressure Visibility Wind Dir Wind Speed Gust Speed Precip Events Conditions
12:15 AM 12.2 °F 4.3 °F 6.8 °F 79% 30.05 in 10.0 mi East 4.6 mph - N/A   Clear
12:35 AM 12.2 °F 2.9 °F 3.2 °F 67% 30.06 in 10.0 mi East 5.8 mph - N/A   Partly Cloudy
12:55 AM 6.8 °F -3.5 °F -4.0 °F 61% 30.06 in 10.0 mi East 5.8 mph - N/A   Partly Cloudy
1:15 AM 10.4 °F 2.2 °F 8.6 °F 92% 30.07 in 10.0 mi East 4.6 mph - N/A   Clear
12:55 PM 30.2 °F 21.3 °F 6.8 °F 37% 30.03 in 10.0 mi East 10.4 mph - N/A   Clear
1:15 PM 30.2 °F 21.9 °F 8.6 °F 40% 30.02 in 10.0 mi East 9.2 mph 16.1 mph N/A   Clear
1:35 PM 32.0 °F 24.2 °F 8.6 °F 38% 30.01 in 10.0 mi ENE 9.2 mph - N/A   Clear
1:55 PM 32.0 °F 24.2 °F 8.6 °F 38% 30.01 in 10.0 mi East 9.2 mph - N/A   Clear
3:55 PM 33.8 °F 26.4 °F 10.4 °F 38% 30.01 in 10.0 mi ENE 9.2 mph - N/A   Overcast
4:15 PM 33.8 °F 27.7 °F 10.4 °F 38% 30.01 in 10.0 mi East 6.9 mph - N/A   Overcast
4:35 PM 33.8 °F 27.0 °F 10.4 °F 38% 30.01 in 10.0 mi East 8.1 mph - N/A   Mostly Cloudy
4:55 PM 33.8 °F 28.6 °F 10.4 °F 38% 30.01 in 10.0 mi East 5.8 mph - N/A   Overcast
6:55 PM 28.4 °F 20.4 °F 15.8 °F 59% 30.04 in 10.0 mi East 8.1 mph - N/A   Overcast
7:15 PM 28.4 °F 19.1 °F 15.8 °F 59% 30.05 in 10.0 mi East 10.4 mph - N/A   Overcast
7:35 PM 28.4 °F 18.5 °F 15.8 °F 59% 30.05 in 10.0 mi East 11.5 mph - N/A   Overcast
7:55 PM 28.4 °F 20.4 °F 17.6 °F 64% 30.05 in 10.0 mi East 8.1 mph - N/A   Overcast
8:35 PM 28.4 °F 18.0 °F 15.8 °F 59% 30.05 in 10.0 mi East 12.7 mph - N/A   Overcast
8:55 PM 26.6 °F 15.7 °F 15.8 °F 64% 30.04 in 10.0 mi East 12.7 mph - N/A   Overcast
9:15 PM 26.6 °F 16.2 °F 15.8 °F 64% 30.04 in 10.0 mi East 11.5 mph - N/A   Overcast
9:35 PM 26.6 °F 13.8 °F 14.0 °F 59% 30.04 in 10.0 mi East 17.3 mph - N/A   Overcast
9:55 PM 26.6 °F 14.7 °F 14.0 °F 59% 30.04 in 10.0 mi East 15.0 mph 20.7 mph N/A   Overcast
10:15 PM 24.8 °F 15.3 °F 14.0 °F 64% 30.05 in 10.0 mi East 9.2 mph - N/A   Overcast
10:35 PM 24.8 °F 12.4 °F 12.2 °F 59% 30.05 in 10.0 mi East 15.0 mph - N/A   Overcast
10:55 PM 24.8 °F 13.4 °F 12.2 °F 59% 30.05 in 10.0 mi East 12.7 mph - N/A   Overcast
11:15 PM 24.8 °F 13.4 °F 12.2 °F 59% 30.06 in 10.0 mi East 12.7 mph - N/A   Overcast
11:35 PM 24.8 °F 14.0 °F 12.2 °F 59% 30.07 in 10.0 mi East 11.5 mph - N/A   Overcast
11:55 PM 24.8 °F 16.1 °F 10.4 °F 54% 30.08 in 10.0 mi East 8.1 mph - N/A   Overcast